Regional Weather Roundup
Issued by NWS Wilmington, NC

Home | Current Version | Previous Version | Text Only | Print | Product List | Glossary On
Versions: 1 2 3 4 5 6 7 8 9 10 11 12 13 14 15 16 17 18 19 20 21 22 23 24 25 26 27 28 29 30 31 32 33 34 35 36 37 38 39 40 41 42 43 44 45 46 47 48 49 50
000
ASUS42 KILM 290413
RWRILM
RWRILM
REGIONAL HOURLY WEATHER ROUNDUP
NATIONAL WEATHER SERVICE WILMINGTON NC
1200 AM EDT SUN MAR 29 2015

NOTE: "FAIR" INDICATES FEW OR NO CLOUDS BELOW 12,000 FEET WITH NO
SIGNIFICANT WEATHER AND/OR OBSTRUCTIONS TO VISIBILITY.

...............WFO WILMINGTON COUNTY WARNING AREA...............

......COASTAL NC AND SC COUNTIES......

CITY           SKY/WX    TMP DP  RH WIND       PRES   REMARKS
WILMINGTON     CLEAR     37  27  67 CALM      30.24R
SOUTHPORT      CLEAR     37  29  73 N3        30.23R
N MYRTLE BEACH CLEAR     40  29  64 N6        30.22R
MYRTLE BEACH   CLEAR     39  32  75 N3        30.25R

......INLAND NC AND SC COUNTIES.......

CITY           SKY/WX    TMP DP  RH WIND       PRES   REMARKS
LUMBERTON      CLEAR     39  20  46 N12       30.26R WCI  32
ELIZABETHTOWN  CLEAR     37  21  50 N5        30.26R WCI  34
WHITEVILLE     CLEAR     37  30  74 CALM      30.24R
FLORENCE       CLEAR     40  23  50 N8        30.25R WCI  34
DARLINGTON     CLEAR     39  21  48 N8        30.27R WCI  34

....................REST OF NORTH CAROLINA......................

.........EASTERN NC.........

CITY           SKY/WX    TMP DP  RH WIND       PRES   REMARKS
CAPE HATTERAS  CLEAR     39  18  42 VRB7      30.21R WCI  34
JACKSONVILLE   CLEAR     36  16  44 N6        30.25R WCI  31
MOREHEAD CITY  CLEAR     37  25  61 N9        30.23R WCI  30
KENANSVILLE    CLEAR     36  17  46 N5        30.27R WCI  32
NEW BERN       CLEAR     37  19  48 N6        30.25R WCI  32
ELIZABETH CITY CLEAR     33  16  49 N15       30.25R WCI  23

.........CENTRAL NC.........

CITY           SKY/WX    TMP DP  RH WIND       PRES   REMARKS
RALEIGH DURHAM CLEAR     33  10  38 NE7       30.27R WCI  27
ROCKY MOUNT    CLEAR     34  14  43 N10       30.28R WCI  26
ROANOKE RAPIDS NOT AVBL
FAYETTEVILLE   CLEAR     37  15  40 N10       30.26R WCI  30
HOFFMAN        CLEAR     37  11  35 N10       30.30R WCI  29

.........WESTERN NC.........

CITY           SKY/WX    TMP DP  RH WIND       PRES   REMARKS
CHARLOTTE      CLEAR     37   9  31 N8        30.26R WCI  31
GREENSBORO     CLEAR     31   8  38 CALM      30.25R
HICKORY        NOT AVBL
BOONE          NOT AVBL
ASHEVILLE      NOT AVBL

.....................REST OF SOUTH CAROLINA.....................

.........EASTERN SC.........

CITY           SKY/WX    TMP DP  RH WIND       PRES   REMARKS
CHARLESTON     CLEAR     45  29  53 CALM      30.22R
BEAUFORT MCAS  CLEAR     43  33  68 W5        30.22S
HILTON HEAD    CLEAR     46  32  57 W3        30.24R

.........CENTRAL SC.........

CITY           SKY/WX    TMP DP  RH WIND       PRES   REMARKS
COLUMBIA       CLEAR     44  19  36 N6        30.24R
ORANGEBURG     CLEAR     40  33  76 NE6       30.22R
SUMTER SHAW    CLEAR     40  20  45 NE12      30.23R WCI  32

.........WESTERN SC.........

CITY           SKY/WX    TMP DP  RH WIND       PRES   REMARKS
GREENVILLE     NOT AVBL
ROCK HILL      CLEAR     35  15  44 NE6       30.25R WCI  30
ANDERSON       CLEAR     40  14  34 NE3       30.25R
CLEMSON        NOT AVBL
GREENWOOD      CLEAR     38  17  42 N5        30.27R WCI  34


...................COASTAL AND OFFSHORE REPORTS..................

................LOCAL PIERS AND NC RESERVE................


STATION/POSITION TIME  SKY/WX   TEMP    WIND        PRES    VSBY
                                AIR SEA DIR/SP/G
                 (UTC)          (F)     (DEG/KT/KT) (MB)    (MI)
JOHNY MRCER PIER 0300            43 58  360/  5/  7 1022.4R
NC RESRV MASNBRO 0245            41     360/  1     1022.0
OCEAN CREST PIER 0402            41 53  340/  7/ 10 1022.7R
SPRINGMAID  PIER 0300            46 55  350/  4/  5 1022.9R


................COASTAL AND OFFSHORE BUOYS................


STATION/POSITION TIME  SKY/WX   TEMP    WIND        PRES    VSBY
                                AIR SEA DIR/SP/G
                 (UTC)          (F)     (DEG/KT/KT) (MB)    (MI)
DIMNDSHOAL 41025 NOT AVBL
CAPE LOOKOUT     0400            42     360/ 12/ 16 1023.2R
ONSLOW BAY 41036 NOT AVBL
5 WRITEBCH 41038 0300            48 56   20/ 17/ 19 1022.9R
MASONBORO  41110 0319               56                N/A
WVE H/P(F/S)=  2/ 9 WND WVE H/P(F/S)=  2/ 9

WILM HARBR 41108 0311               59                N/A
WVE H/P(F/S)=  3/ 3 WND WVE H/P(F/S)=  3/ 3

27WRITEBCH 41037 0300            46 65  360/ 16/ 17 1023.9R
FRYING PAN 41013 0350            51 65   10/ 17/ 21 1023.2R
WVE H/P(F/S)=  4/ 5 WND WVE H/P(F/S)=  3/ 5 SWL H/P/D(F/S/D)=  2/160/ 8

SUNST NRSH 41024 0300            45      20/ 10/ 12   N/A
CAPRS NRSH 41029 NOT AVBL
EDISTO     41004 0350            56 68  340/ 16/ 19 1022.2R
WVE H/P(F/S)=  5/ 4 WND WVE H/P(F/S)=  5/ 4 SWL H/P/D(F/S/D)=  2/10



..........OFFSHORE BUOYS BEYOND 100 NM OFFSHORE...........
.....IN A TRIANGLE---HAT TO BERMUDA TO BAHAMAS TO HAT.....


STATION/POSITION TIME  SKY/WX   TEMP    WIND        PRES    VSBY
                                AIR SEA DIR/SP/G
                 (UTC)          (F)     (DEG/KT/KT) (MB)    (MI)
150E HAT   41001 NOT AVBL
W BERMUDA  41048 0350            65 69  260/ 16/ 19 1017.1F
WVE H/P(F/S)= 11/ 9 WND WVE H/P(F/S)=  5/ 6 SWL H/P/D(F/S/D)= 10/280/ 9

ATLANTIC S 41049 0350            75 75  190/ 17/ 23 1020.1F
WVE H/P(F/S)=  7/ 7 WND WVE H/P(F/S)=  7/ 7

E BAHAMAS  41046 0350            78 79  180/ 12/ 14 1019.6F
WVE H/P(F/S)=  6/ 8 WND WVE H/P(F/S)=  3/ 6 SWL H/P/D(F/S/D)=  5/100/ 8

NE BAHAMAS 41047 0350            72 75  310/ 12/ 14 1019.5R
WVE H/P(F/S)=  6/ 8 WND WVE H/P(F/S)=  2/ 5 SWL H/P/D(F/S/D)=  5/260/ 8

120E CANVRL41010 0320            65 76  310/ 12/ 17 1022.5R

END


USA.gov is the U.S. government's official web portal to all federal, state and local government web resources and services.